Forside
METAR-TAF:

METAR-TAF

Lufthavne :

Leigh Creek, Australien

Breddekreds: 30-35-54S, længdekreds: 138-25-36E, højde: 261 m

Aktuelle vejr

Denne rapport blev lavet for 59 minutter siden, kl. 01:00 UTC
Vind 9 kt fra nordnordøst
Temperatur 33°C
Fugtighed 15%
Tryk 1019 hPa

METAR: YLEC 240100Z AUTO 02009KT //// // ////// 33/03 Q1019

Tid: 12:29 (01:59 UTC)


TAF: fraværende

Vejrobservationer og prognoser fra mere end 4000 lufthavne (METAR og TAF).

De gule og røde prikker repræsenterer de meteorologiske stationer.

Flyt musen over at se navnet på stationen.

Så klik over at se vejr observationer og prognoser.

At skifte det kort: Klik på de grønne knapper med et sort kors for at zoome ind; på den grønne knap med en bindestreg for at zoome ud; eller på de grønne pile for tilstødende kort.


METAR-TAF: